ECHOSTAR 15

Last updated on June 17, 2019, 3:36 a.m. UTC

1 36792U 10034A   19167.79213666 -.00000289  00000-0  00000+0 0  9998
2 36792   0.0154   9.3583 0002057  69.7963  49.0975  1.00269569 32750
UTC
Height (km)
Latitude
Longitude
Inclination
Orbital Period
UTC large
Height (km)
Speed (km/s)
/
Latitude / Longitude
Inclination (degrees)
Orbital Period (minutes)
Azimuth
Elevation
Range (km)
Doppler Factor
iOS Compass Heading
iOS Angle

Next 30 passes for location: Hong Kong

Rise time Rise Azimuth (degrees) Set time Set Azimuth (degrees) Duration Max altitude (degrees)

No matching passes for this satellites